Tracking 20092 objects as of 14-Dec-2019
HD Live streaming from Space Station
objects crossing your sky now

COSMOS 198

Track COSMOS 198 now!
10-day predictions
COSMOS 198 is classified as:


NORAD ID: 3081
Int'l Code: 1967-127A
Perigee: 895.3 km
Apogee: 953.7 km
Inclination: 65.1 °
Period: 103.4 minutes
Semi major axis: 7295 km
RCS: 2.5177 m2 (large)
Launch date: December 27, 1967
Source: Commonwealth of Independent States (former USSR) (CIS)
Launch site: TYURATAM MISSILE AND SPACE COMPLEX (TTMTR)
aabbcc
Your satellite tracking list
Your tracking list is empty




NASA's NSSDC Master Catalog

Two Line Element Set (TLE):
1  3081U 67127A   19347.20895095 -.00000089  00000-0  40319-6 0  9998
2  3081  65.1420  22.7613 0040022 242.2243 117.4763 13.93219940642765
Source of the keplerian elements: AFSPC